Weather History for San Jose, Costa Rica

Change the Weather History Date:

Tuesday, May 14, 2013

  Actual Average Record
Temperature  
Mean Temperature 76 °F -  
Max Temperature 82 °F 81 °F 89 °F (1998)
Min Temperature 69 °F 65 °F 35 °F (2001)
Cooling Degree Days 10    
Growing Degree Days 26 (Base 50)    
Moisture  
Dew Point 59 °F    
Average Humidity 57    
Maximum Humidity 73    
Minimum Humidity 38    
Precipitation  
Precipitation 0.00 in 0.36 in - ()
Sea Level Pressure  
Sea Level Pressure 29.97 in    
Wind  
Wind Speed 15 mph ()    
Max Wind Speed 24 mph    
Max Gust Speed 31 mph    
Visibility 8.0 miles    
Events      
Averages and records for this station are not official NWS values.
T = Trace of Precipitation, MM = Missing Value Source: Averaged Metar Reports

Daily Weather History Graph

Daily Weather History Graph

Search for Another Location

Airport:

Trip Planner

Search our weather history database for the weather conditions in past years. The results will help you decide how hot, cold, wet, or windy it might be!

Date:

Astronomy

May. 14, 2013 Rise Set
Actual Time 5:15 AM CST 5:50 PM CST
Civil Twilight 4:53 AM CST 6:12 PM CST
Nautical Twilight 4:27 AM CST 6:39 PM CST
Astronomical Twilight 4:01 AM CST 7:05 PM CST
Moon 8:53 AM CST (5/14) 9:42 PM CST (5/14)
Length of Visible Light 13h 19m
Length of Day
12h 34m
Waxing Crescent, 19% of the Moon is Illuminated
May 14
Waxing Crescent
May 17
First Quarter
May 24
Full
May 31
Last Quarter
Jun 8
New

Hourly Weather History & Observations

Time (CST) Temp. Heat Index Dew Point Humidity Pressure Visibility Wind Dir Wind Speed Gust Speed Precip Events Conditions
12:00 AM 71 °F - 58 °F 54% 29.88 in 12 mi East 19.6 mph - -   Scattered Clouds
12:00 AM 69.8 °F - 57.2 °F 64% 30.03 in 6.2 mi East 19.6 mph - N/A   Partly Cloudy
1:00 AM 69.8 °F - 60.8 °F 73% 30.00 in 6.2 mi ESE 18.4 mph - N/A   Partly Cloudy
2:00 AM 69.8 °F - 60.8 °F 73% 29.98 in 6.2 mi East 12.7 mph 26.5 mph N/A   Partly Cloudy
3:00 AM 70 °F - 60 °F 64% 29.81 in 12 mi East 15.0 mph - -   Scattered Clouds
3:00 AM 69.8 °F - 60.8 °F 73% 29.98 in 6.2 mi East 15.0 mph 26.5 mph N/A   Partly Cloudy
4:00 AM 69.8 °F - 60.8 °F 73% 29.99 in 6.2 mi NNE 11.5 mph - N/A   Partly Cloudy
5:00 AM 71.6 °F - 59.0 °F 64% 29.97 in 6.2 mi East 15.0 mph 28.8 mph N/A   Partly Cloudy
6:00 AM 72 °F - 56 °F 48% 29.82 in 12 mi East 23.0 mph - -   Scattered Clouds
6:00 AM 71.6 °F - 57.2 °F 60% 29.98 in 6.2 mi East 23.0 mph - N/A   Mostly Cloudy
7:00 AM 73.4 °F - 57.2 °F 57% 30.00 in 6.2 mi East 15.0 mph 31.1 mph N/A   Mostly Cloudy
8:00 AM 75.2 °F - 57.2 °F 53% 30.01 in 6.2 mi East 16.1 mph 27.6 mph N/A   Mostly Cloudy
9:00 AM 77 °F - 58 °F 43% 29.85 in 12 mi East 15.0 mph - -   Scattered Clouds
9:00 AM 77.0 °F - 59.0 °F 54% 30.03 in 6.2 mi East 15.0 mph 26.5 mph N/A   Mostly Cloudy
10:00 AM 78.8 °F - 59.0 °F 51% 30.03 in 6.2 mi East 16.1 mph 27.6 mph N/A   Mostly Cloudy
11:00 AM 78.8 °F - 60.8 °F 54% 30.03 in 6.2 mi East 15.0 mph 31.1 mph N/A   Mostly Cloudy
12:00 PM 80 °F - 59 °F 38% 29.83 in 12 mi East 15.0 mph - -   Partly Cloudy
1:00 PM 80.6 °F 81.1 °F 59.0 °F 48% 30.01 in 6.2 mi East 13.8 mph 25.3 mph N/A   Mostly Cloudy
2:00 PM 77.0 °F - 60.8 °F 57% 29.99 in 6.2 mi East 16.1 mph - N/A   Scattered Clouds
3:00 PM 76 °F - 59 °F 46% 29.83 in 12 mi East 24.2 mph - -   Partly Cloudy
3:00 PM 77.0 °F - 59.0 °F 54% 29.99 in 6.2 mi East 12.7 mph 24.2 mph N/A   Scattered Clouds
4:00 PM 77.0 °F - 59.0 °F 54% 29.99 in 6.2 mi ENE 11.5 mph - N/A   Mostly Cloudy
5:00 PM 75.2 °F - 55.4 °F 50% 29.99 in 6.2 mi East 11.5 mph 23.0 mph N/A   Mostly Cloudy
6:00 PM 73 °F - 59 °F 51% 29.90 in 12 mi East 22.4 mph - -   Partly Cloudy
6:00 PM 73.4 °F - 57.2 °F 57% 30.01 in 6.2 mi East 11.5 mph - N/A   Mostly Cloudy
7:00 PM 73.4 °F - 59.0 °F 61% 30.03 in - ENE 13.8 mph - N/A   Clear
8:00 PM 73.4 °F - 57.2 °F 57% 30.04 in - ENE 11.5 mph 23.0 mph N/A   Clear
9:00 PM 72 °F - 58 °F 52% 29.87 in 12 mi East 12.7 mph - -   Clear
9:00 PM 71.6 °F - 59.0 °F 64% 30.04 in - East 12.7 mph 28.8 mph N/A   Clear
10:00 PM 71.6 °F - 59.0 °F 64% 30.06 in - East 11.5 mph - N/A   Clear
11:00 PM 69.8 °F - 59.0 °F 68% 30.06 in - East 11.5 mph 23.0 mph N/A   Clear